#timestamp,LO_Frequency,Hit,StdDev 
1664456415.5,286046998.3,P
1664456435.3,286047001.0,P
1664456455.2,286046998.1,N
1664456475.0,286047000.0,N
1664456475.9,286047000.0,N
1664456495.8,286047002.8,N
1664456515.6,286046999.9,N
1664456535.4,286047000.4,N
1664456555.3,286047001.1,N
1664456575.1,286046998.2,N
1664456595.9,286046998.5,N
1664456615.7,286047001.1,N
1664456635.5,286046998.1,N
1664456655.4,286047000.5,N
1664456675.2,286047001.0,N
1664456695.1,286047002.2,N
1664456696.0,286047002.2,N
1664456715.8,286047002.3,N
1664456735.6,286047003.8,N
1664456755.5,286047003.3,N
1664456775.3,286047003.3,N
1664456795.1,286047002.9,N
1664456815.9,286047003.3,N
1664456835.7,286047003.0,N
1664456855.6,286047005.6,N
1664456875.4,286047006.0,N
1664456895.2,286047005.6,N
1664456915.1,286047004.6,N
1664456916.0,286047004.6,N
1664456935.8,286047001.6,N
1664456955.6,286047004.4,N
1664456975.5,286047003.1,N
1664456995.3,286047003.9,N
1664457015.2,286047004.4,N
1664457035.9,286047004.1,N
1664457055.7,286047003.1,N
1664457075.1,286047005.3,N
1664457095.9,286047005.3,N
1664457115.7,286047005.8,N
1664457135.6,286047005.8,N
1664457155.4,286047005.2,N
1664457175.2,286047002.9,N
1664457195.1,286047003.5,N
1664457196.0,286047003.5,N
1664457215.8,286047003.2,N
1664457235.6,286047003.6,N
1664457255.5,286047003.0,N
1664457275.3,286047004.9,Y
1664457295.2,286047001.0,P
1664457315.9,286046997.7,N
1664457335.7,286046997.7,N
1664457355.6,286046996.8,N
1664457375.4,286046998.1,N
1664457395.3,286046998.9,N
1664457415.1,286046998.4,N
1664457416.0,286046998.4,N
1664457435.8,286046998.2,N
1664457455.7,286046999.4,N
1664457475.5,286046997.7,N
1664457495.3,286046996.1,N
1664457515.2,286046994.9,N
1664457535.0,286046996.7,N
1664457535.9,286046996.7,N
1664457555.8,286046998.9,N
1664457575.6,286046998.0,N
1664457595.5,286046997.1,N
1664457615.3,286046998.4,N
1664457635.1,286046999.2,N
1664457655.9,286046998.5,N
1664457675.7,286047000.9,N
1664457695.5,286047000.1,N
1664457715.4,286047000.0,N
1664457735.2,286047002.3,N
1664457755.0,286047001.5,N
1664457756.0,286047001.5,N
1664457775.8,286047002.5,N
1664457795.6,286047004.2,N
1664457815.5,286047001.3,N
1664457835.3,286047002.6,N
1664457855.1,286047001.6,N
1664457875.9,286047000.2,N
1664457895.7,286047002.8,N
1664457915.6,286047000.4,N
1664457935.4,286047002.8,N
1664457955.2,286047000.3,N
1664457975.1,286047000.1,N
1664457976.0,286047000.1,N
1664457995.8,286047002.7,N
1664458015.6,286047002.8,N
1664458035.5,286047002.2,N
1664458055.3,286047002.3,N
1664458075.2,286046999.7,N
1664458095.9,286047000.6,N
1664458115.7,286046999.8,N
1664458135.6,286047002.6,N
1664458155.4,286047002.0,N
1664458175.2,286047004.0,N
1664458195.1,286047003.5,N
1664458196.0,286047003.5,N
1664458215.8,286047004.0,Y
1664458235.7,286047000.3,P
1664458255.5,286047002.8,P
1664458275.3,286047002.7,N
1664458295.2,286047000.1,N
1664458315.0,286047000.2,N
1664458315.9,286047000.2,N
1664458335.8,286047000.9,N
1664458355.6,286046999.8,N
1664458375.4,286046998.5,N
1664458395.3,286047001.2,N
1664458415.1,286047000.9,N
1664458435.8,286046999.2,N
1664458455.7,286046999.0,N
1664458475.5,286046998.3,N
1664458495.4,286047001.1,N
1664458515.2,286047001.2,N
1664458535.0,286046998.8,N
1664458535.9,286046998.8,N
1664458555.8,286046996.5,N
1664458575.6,286046999.0,N
1664458595.4,286046998.9,N
1664458615.3,286046998.7,N
1664458635.1,286046998.5,N
1664458655.9,286047001.2,N
1664458675.7,286046998.1,N
1664458695.5,286047000.9,N
1664458715.4,286046998.7,N
1664458735.2,286046998.4,N
1664458755.0,286046999.3,N
1664458755.9,286046999.3,N
1664458775.8,286046999.1,N
1664458795.6,286046999.0,N
1664458815.5,286046998.4,N
1664458835.3,286046998.3,N
1664458855.1,286046998.1,N
1664458875.9,286046999.4,N
1664458895.7,286046996.7,N
1664458915.5,286046996.7,N
1664458935.4,286046999.2,N
1664458955.2,286046999.3,N
1664458975.1,286046998.3,N
1664458976.0,286046998.3,N
1664458995.8,286046998.3,N
1664459015.6,286047002.4,N
1664459035.5,286046999.9,N
1664459055.3,286046998.5,N
1664459075.2,286046998.3,N
1664459095.9,286046998.7,N
1664459115.7,286046999.1,N
1664459135.6,286046999.0,N
1664459155.4,286046996.6,Y
1664459175.2,286047000.6,P
1664459195.1,286047001.0,N
1664459196.0,286047001.0,N
1664459215.8,286047000.4,N
1664459235.7,286047002.8,Y
1664459255.5,286047000.3,P
1664459275.3,286047000.4,P
1664459295.2,286047001.6,P
1664459315.0,286047000.8,N
1664459315.9,286047000.8,N
1664459335.8,286046998.7,N
1664459355.6,286047000.9,N
1664459375.4,286047002.3,N
1664459395.3,286047002.6,N
1664459415.1,286047001.7,N
1664459435.9,286047001.9,N
1664459455.7,286047004.4,Y
1664459475.5,286047002.4,P
1664459495.4,286047001.6,N
1664459515.2,286047002.0,P
1664459535.0,286047001.5,N
1664459536.0,286047001.5,Y
1664459555.8,286047002.8,P
1664459575.6,286047000.4,N
1664459595.5,286047000.0,N
1664459615.3,286046999.4,N
1664459635.1,286046995.1,Y
1664459655.9,286046998.0,P
1664459675.7,286046997.2,N
1664459695.6,286046999.3,N
1664459715.4,286046999.1,N
1664459735.2,286046995.4,Y
1664459755.1,286046996.8,P
1664459756.0,286046996.8,P
1664459775.8,286046996.5,P
1664459795.7,286046996.6,Y
1664459815.5,286047002.7,P
1664459835.3,286047000.6,N
1664459855.2,286047002.3,N
1664459875.0,286047002.0,N
1664459875.9,286047002.0,N
1664459895.8,286047001.5,N
1664459915.6,286047003.7,N
1664459935.4,286047002.2,N
1664459955.3,286047002.5,N
1664459975.1,286047001.9,N
1664459995.8,286047001.4,N
